Location: Bittelbronn
(48.4454°N, 8.5870°E)
Time: 11:04:09
(UTC+00:00)

deb Kosmos-1275 - Pass Details

Date: 12 October 2024
Orbit: 884 x 986 km, 82.7° (Epoch: 06 November)

Event Time Altitude Azimuth Distance (km) Brightness Sun altitude
Exits shadow 20:39:38 11° 19° (NNE) 2,604 ? -38.3°
Drops below altitude 10° 20:39:43 10° 19° (NNE) 2,634 ? -38.3°
Sets 20:42:17 0° 14° (NNE) 3,581 ? -38.6°
